owner,sensor,date,latitude,longitude,vertical_datum,sea_water_temperature,qcFlag 
SCCF RECON,ioos:station:SCCF:51:1,2009-03-01T00:00:00Z,26.5545,-82.1715,1.8,20.66,2 
SCCF RECON,ioos:station:SCCF:51:1,2009-03-01T01:00:00Z,26.5545,-82.1715,1.8,20.64,2 
SCCF RECON,ioos:station:SCCF:51:1,2009-03-01T02:00:00Z,26.5545,-82.1715,1.8,20.62,2 
SCCF RECON,ioos:station:SCCF:51:1,2009-03-01T03:00:00Z,26.5545,-82.1715,1.8,20.66,2 
SCCF RECON,ioos:station:SCCF:51:1,2009-03-01T04:00:00Z,26.5545,-82.1715,1.8,20.49,2 
SCCF RECON,ioos:station:SCCF:51:1,2009-03-01T05:00:00Z,26.5545,-82.1715,1.8,20.46,2 
SCCF RECON,ioos:station:SCCF:51:1,2009-03-01T06:00:00Z,26.5545,-82.1715,1.8,20.32,2 
SCCF RECON,ioos:station:SCCF:51:1,2009-03-01T07:00:00Z,26.5545,-82.1715,1.8,20.11,2 
SCCF RECON,ioos:station:SCCF:51:1,2009-03-01T08:00:00Z,26.5545,-82.1715,1.8,20.19,2 
SCCF RECON,ioos:station:SCCF:51:1,2009-03-01T09:00:00Z,26.5545,-82.1715,1.8,19.78,2 
SCCF RECON,ioos:station:SCCF:51:1,2009-03-01T10:00:00Z,26.5545,-82.1715,1.8,19.98,2 
SCCF RECON,ioos:station:SCCF:51:1,2009-03-01T11:00:00Z,26.5545,-82.1715,1.8,20.09,2 
SCCF RECON,ioos:station:SCCF:51:1,2009-03-01T12:00:00Z,26.5545,-82.1715,1.8,20.14,2 
SCCF RECON,ioos:station:SCCF:51:1,2009-03-01T13:00:00Z,26.5545,-82.1715,1.8,20.19,2 
SCCF RECON,ioos:station:SCCF:51:1,2009-03-01T14:00:00Z,26.5545,-82.1715,1.8,20.25,2 
SCCF RECON,ioos:station:SCCF:51:1,2009-03-01T15:00:00Z,26.5545,-82.1715,1.8,20.26,2 
SCCF RECON,ioos:station:SCCF:51:1,2009-03-01T16:00:00Z,26.5545,-82.1715,1.8,20.06,2 
SCCF RECON,ioos:station:SCCF:51:1,2009-03-01T17:00:00Z,26.5545,-82.1715,1.8,19.66,2 
SCCF RECON,ioos:station:SCCF:51:1,2009-03-01T18:00:00Z,26.5545,-82.1715,1.8,19.81,2 
SCCF RECON,ioos:station:SCCF:51:1,2009-03-01T19:00:00Z,26.5545,-82.1715,1.8,19.62,2 
SCCF RECON,ioos:station:SCCF:51:1,2009-03-01T20:00:00Z,26.5545,-82.1715,1.8,19.57,2 
SCCF RECON,ioos:station:SCCF:51:1,2009-03-01T21:00:00Z,26.5545,-82.1715,1.8,19.53,2 
SCCF RECON,ioos:station:SCCF:51:1,2009-03-01T22:00:00Z,26.5545,-82.1715,1.8,19.48,2 
SCCF RECON,ioos:station:SCCF:51:1,2009-03-01T23:00:00Z,26.5545,-82.1715,1.8,19.3,2 
SCCF RECON,ioos:station:SCCF:51:1,2009-03-02T00:00:00Z,26.5545,-82.1715,1.8,19.24,2 
SCCF RECON,ioos:station:SCCF:51:1,2009-03-02T01:00:00Z,26.5545,-82.1715,1.8,19.12,2 
SCCF RECON,ioos:station:SCCF:51:1,2009-03-02T02:00:00Z,26.5545,-82.1715,1.8,19.03,2 
SCCF RECON,ioos:station:SCCF:51:1,2009-03-02T03:00:00Z,26.5545,-82.1715,1.8,18.88,2 
SCCF RECON,ioos:station:SCCF:51:1,2009-03-02T04:00:00Z,26.5545,-82.1715,1.8,18.74,2 
SCCF RECON,ioos:station:SCCF:51:1,2009-03-02T05:00:00Z,26.5545,-82.1715,1.8,18.55,2 
SCCF RECON,ioos:station:SCCF:51:1,2009-03-02T06:00:00Z,26.5545,-82.1715,1.8,18.35,2 
SCCF RECON,ioos:station:SCCF:51:1,2009-03-02T07:00:00Z,26.5545,-82.1715,1.8,18.01,2 
SCCF RECON,ioos:station:SCCF:51:1,2009-03-02T08:00:00Z,26.5545,-82.1715,1.8,17.96,2 
SCCF RECON,ioos:station:SCCF:51:1,2009-03-02T09:00:00Z,26.5545,-82.1715,1.8,17.81,2 
SCCF RECON,ioos:station:SCCF:51:1,2009-03-02T10:00:00Z,26.5545,-82.1715,1.8,17.74,2 
SCCF RECON,ioos:station:SCCF:51:1,2009-03-02T11:00:00Z,26.5545,-82.1715,1.8,17.6,2 
SCCF RECON,ioos:station:SCCF:51:1,2009-03-02T12:00:00Z,26.5545,-82.1715,1.8,17.29,2 
SCCF RECON,ioos:station:SCCF:51:1,2009-03-02T13:00:00Z,26.5545,-82.1715,1.8,17.25,2 
SCCF RECON,ioos:station:SCCF:51:1,2009-03-02T14:00:00Z,26.5545,-82.1715,1.8,17.07,2 
SCCF RECON,ioos:station:SCCF:51:1,2009-03-02T15:00:00Z,26.5545,-82.1715,1.8,17.3,2 
SCCF RECON,ioos:station:SCCF:51:1,2009-03-02T16:00:00Z,26.5545,-82.1715,1.8,17.38,2 
SCCF RECON,ioos:station:SCCF:51:1,2009-03-02T17:00:00Z,26.5545,-82.1715,1.8,17.41,2 
SCCF RECON,ioos:station:SCCF:51:1,2009-03-02T18:00:00Z,26.5545,-82.1715,1.8,17.27,2 
SCCF RECON,ioos:station:SCCF:51:1,2009-03-02T19:00:00Z,26.5545,-82.1715,1.8,17.5,2 
SCCF RECON,ioos:station:SCCF:51:1,2009-03-02T20:00:00Z,26.5545,-82.1715,1.8,17.56,2 
SCCF RECON,ioos:station:SCCF:51:1,2009-03-02T21:00:00Z,26.5545,-82.1715,1.8,17.68,2 
SCCF RECON,ioos:station:SCCF:51:1,2009-03-02T22:00:00Z,26.5545,-82.1715,1.8,17.65,2 
SCCF RECON,ioos:station:SCCF:51:1,2009-03-02T23:00:00Z,26.5545,-82.1715,1.8,17.44,2 
SCCF RECON,ioos:station:SCCF:51:1,2009-03-03T00:00:00Z,26.5545,-82.1715,1.8,17.09,2 
SCCF RECON,ioos:station:SCCF:51:1,2009-03-03T01:00:00Z,26.5545,-82.1715,1.8,17.2,2 
SCCF RECON,ioos:station:SCCF:51:1,2009-03-03T02:00:00Z,26.5545,-82.1715,1.8,17.18,2 
SCCF RECON,ioos:station:SCCF:51:1,2009-03-03T03:00:00Z,26.5545,-82.1715,1.8,17.07,2 
SCCF RECON,ioos:station:SCCF:51:1,2009-03-03T04:00:00Z,26.5545,-82.1715,1.8,16.86,2 
SCCF RECON,ioos:station:SCCF:51:1,2009-03-03T05:00:00Z,26.5545,-82.1715,1.8,16.76,2 
SCCF RECON,ioos:station:SCCF:51:1,2009-03-03T06:00:00Z,26.5545,-82.1715,1.8,16.69,2 
SCCF RECON,ioos:station:SCCF:51:1,2009-03-03T07:00:00Z,26.5545,-82.1715,1.8,16.43,2 
SCCF RECON,ioos:station:SCCF:51:1,2009-03-03T08:00:00Z,26.5545,-82.1715,1.8,16.33,2 
SCCF RECON,ioos:station:SCCF:51:1,2009-03-03T09:00:00Z,26.5545,-82.1715,1.8,16.1,2 
SCCF RECON,ioos:station:SCCF:51:1,2009-03-03T10:00:00Z,26.5545,-82.1715,1.8,16.03,2 
SCCF RECON,ioos:station:SCCF:51:1,2009-03-03T11:00:00Z,26.5545,-82.1715,1.8,16.08,2 
SCCF RECON,ioos:station:SCCF:51:1,2009-03-03T12:00:00Z,26.5545,-82.1715,1.8,15.77,2 
SCCF RECON,ioos:station:SCCF:51:1,2009-03-03T13:00:00Z,26.5545,-82.1715,1.8,15.71,2 
SCCF RECON,ioos:station:SCCF:51:1,2009-03-03T14:00:00Z,26.5545,-82.1715,1.8,15.72,2 
SCCF RECON,ioos:station:SCCF:51:1,2009-03-03T15:00:00Z,26.5545,-82.1715,1.8,15.8,2 
SCCF RECON,ioos:station:SCCF:51:1,2009-03-03T16:00:00Z,26.5545,-82.1715,1.8,15.91,2 
SCCF RECON,ioos:station:SCCF:51:1,2009-03-03T17:00:00Z,26.5545,-82.1715,1.8,16.05,2 
SCCF RECON,ioos:station:SCCF:51:1,2009-03-03T18:00:00Z,26.5545,-82.1715,1.8,16.33,2 
SCCF RECON,ioos:station:SCCF:51:1,2009-03-03T19:00:00Z,26.5545,-82.1715,1.8,16.73,2 
SCCF RECON,ioos:station:SCCF:51:1,2009-03-03T20:00:00Z,26.5545,-82.1715,1.8,17.0,2 
SCCF RECON,ioos:station:SCCF:51:1,2009-03-03T21:00:00Z,26.5545,-82.1715,1.8,16.92,2 
SCCF RECON,ioos:station:SCCF:51:1,2009-03-03T22:00:00Z,26.5545,-82.1715,1.8,17.06,2 
SCCF RECON,ioos:station:SCCF:51:1,2009-03-03T23:00:00Z,26.5545,-82.1715,1.8,16.97,2 
SCCF RECON,ioos:station:SCCF:51:1,2009-03-04T00:00:00Z,26.5545,-82.1715,1.8,16.74,2 
SCCF RECON,ioos:station:SCCF:51:1,2009-03-04T01:00:00Z,26.5545,-82.1715,1.8,16.45,2 
SCCF RECON,ioos:station:SCCF:51:1,2009-03-04T02:00:00Z,26.5545,-82.1715,1.8,16.33,2 
SCCF RECON,ioos:station:SCCF:51:1,2009-03-04T03:00:00Z,26.5545,-82.1715,1.8,16.27,2 
SCCF RECON,ioos:station:SCCF:51:1,2009-03-04T04:00:00Z,26.5545,-82.1715,1.8,16.27,2 
SCCF RECON,ioos:station:SCCF:51:1,2009-03-04T05:00:00Z,26.5545,-82.1715,1.8,16.02,2 
SCCF RECON,ioos:station:SCCF:51:1,2009-03-04T06:00:00Z,26.5545,-82.1715,1.8,15.86,2 
SCCF RECON,ioos:station:SCCF:51:1,2009-03-04T07:00:00Z,26.5545,-82.1715,1.8,15.78,2 
SCCF RECON,ioos:station:SCCF:51:1,2009-03-04T08:00:00Z,26.5545,-82.1715,1.8,15.64,2 
SCCF RECON,ioos:station:SCCF:51:1,2009-03-04T09:00:00Z,26.5545,-82.1715,1.8,15.42,2 
SCCF RECON,ioos:station:SCCF:51:1,2009-03-04T10:00:00Z,26.5545,-82.1715,1.8,15.15,2 
SCCF RECON,ioos:station:SCCF:51:1,2009-03-04T11:00:00Z,26.5545,-82.1715,1.8,14.95,2 
SCCF RECON,ioos:station:SCCF:51:1,2009-03-04T12:00:00Z,26.5545,-82.1715,1.8,14.61,2 
SCCF RECON,ioos:station:SCCF:51:1,2009-03-04T13:00:00Z,26.5545,-82.1715,1.8,14.74,2 
SCCF RECON,ioos:station:SCCF:51:1,2009-03-04T14:00:00Z,26.5545,-82.1715,1.8,15.07,2 
SCCF RECON,ioos:station:SCCF:51:1,2009-03-04T15:00:00Z,26.5545,-82.1715,1.8,15.25,2 
SCCF RECON,ioos:station:SCCF:51:1,2009-03-04T16:00:00Z,26.5545,-82.1715,1.8,15.56,2 
SCCF RECON,ioos:station:SCCF:51:1,2009-03-04T17:00:00Z,26.5545,-82.1715,1.8,15.94,2 
SCCF RECON,ioos:station:SCCF:51:1,2009-03-04T18:00:00Z,26.5545,-82.1715,1.8,16.08,2 
SCCF RECON,ioos:station:SCCF:51:1,2009-03-04T19:00:00Z,26.5545,-82.1715,1.8,16.28,2 
SCCF RECON,ioos:station:SCCF:51:1,2009-03-04T20:00:00Z,26.5545,-82.1715,1.8,16.48,2 
SCCF RECON,ioos:station:SCCF:51:1,2009-03-04T21:00:00Z,26.5545,-82.1715,1.8,16.48,2 
SCCF RECON,ioos:station:SCCF:51:1,2009-03-04T22:00:00Z,26.5545,-82.1715,1.8,16.7,2 
SCCF RECON,ioos:station:SCCF:51:1,2009-03-04T23:00:00Z,26.5545,-82.1715,1.8,16.67,2 
SCCF RECON,ioos:station:SCCF:51:1,2009-03-05T00:00:00Z,26.5545,-82.1715,1.8,16.56,2 
SCCF RECON,ioos:station:SCCF:51:1,2009-03-05T01:00:00Z,26.5545,-82.1715,1.8,16.39,2 
SCCF RECON,ioos:station:SCCF:51:1,2009-03-05T02:00:00Z,26.5545,-82.1715,1.8,16.34,2 
SCCF RECON,ioos:station:SCCF:51:1,2009-03-05T03:00:00Z,26.5545,-82.1715,1.8,16.29,2 
SCCF RECON,ioos:station:SCCF:51:1,2009-03-05T04:00:00Z,26.5545,-82.1715,1.8,16.3,2 
SCCF RECON,ioos:station:SCCF:51:1,2009-03-05T05:00:00Z,26.5545,-82.1715,1.8,16.24,2 
SCCF RECON,ioos:station:SCCF:51:1,2009-03-05T06:00:00Z,26.5545,-82.1715,1.8,16.08,2 
SCCF RECON,ioos:station:SCCF:51:1,2009-03-05T07:00:00Z,26.5545,-82.1715,1.8,16.1,2 
SCCF RECON,ioos:station:SCCF:51:1,2009-03-05T08:00:00Z,26.5545,-82.1715,1.8,16.07,2 
SCCF RECON,ioos:station:SCCF:51:1,2009-03-05T09:00:00Z,26.5545,-82.1715,1.8,15.95,2 
SCCF RECON,ioos:station:SCCF:51:1,2009-03-05T10:00:00Z,26.5545,-82.1715,1.8,15.96,2 
SCCF RECON,ioos:station:SCCF:51:1,2009-03-05T11:00:00Z,26.5545,-82.1715,1.8,15.87,2 
SCCF RECON,ioos:station:SCCF:51:1,2009-03-05T12:00:00Z,26.5545,-82.1715,1.8,16.12,2 
SCCF RECON,ioos:station:SCCF:51:1,2009-03-05T13:00:00Z,26.5545,-82.1715,1.8,16.04,2 
SCCF RECON,ioos:station:SCCF:51:1,2009-03-05T14:00:00Z,26.5545,-82.1715,1.8,16.12,2 
SCCF RECON,ioos:station:SCCF:51:1,2009-03-05T15:00:00Z,26.5545,-82.1715,1.8,16.12,2 
SCCF RECON,ioos:station:SCCF:51:1,2009-03-05T16:00:00Z,26.5545,-82.1715,1.8,16.49,2 
SCCF RECON,ioos:station:SCCF:51:1,2009-03-05T17:00:00Z,26.5545,-82.1715,1.8,16.47,2 
SCCF RECON,ioos:station:SCCF:51:1,2009-03-05T18:00:00Z,26.5545,-82.1715,1.8,16.72,2 
SCCF RECON,ioos:station:SCCF:51:1,2009-03-05T19:00:00Z,26.5545,-82.1715,1.8,16.99,2 
SCCF RECON,ioos:station:SCCF:51:1,2009-03-05T20:00:00Z,26.5545,-82.1715,1.8,17.29,2 
SCCF RECON,ioos:station:SCCF:51:1,2009-03-05T21:00:00Z,26.5545,-82.1715,1.8,17.53,2 
SCCF RECON,ioos:station:SCCF:51:1,2009-03-05T22:00:00Z,26.5545,-82.1715,1.8,17.54,2 
SCCF RECON,ioos:station:SCCF:51:1,2009-03-05T23:00:00Z,26.5545,-82.1715,1.8,17.31,2 
SCCF RECON,ioos:station:SCCF:51:1,2009-03-06T00:00:00Z,26.5545,-82.1715,1.8,17.24,2 
SCCF RECON,ioos:station:SCCF:51:1,2009-03-06T01:00:00Z,26.5545,-82.1715,1.8,17.41,2 
SCCF RECON,ioos:station:SCCF:51:1,2009-03-06T02:00:00Z,26.5545,-82.1715,1.8,17.52,2 
SCCF RECON,ioos:station:SCCF:51:1,2009-03-06T03:00:00Z,26.5545,-82.1715,1.8,17.43,2 
SCCF RECON,ioos:station:SCCF:51:1,2009-03-06T04:00:00Z,26.5545,-82.1715,1.8,17.21,2 
SCCF RECON,ioos:station:SCCF:51:1,2009-03-06T05:00:00Z,26.5545,-82.1715,1.8,16.9,2 
SCCF RECON,ioos:station:SCCF:51:1,2009-03-06T06:00:00Z,26.5545,-82.1715,1.8,16.88,2 
SCCF RECON,ioos:station:SCCF:51:1,2009-03-06T07:00:00Z,26.5545,-82.1715,1.8,16.91,2 
SCCF RECON,ioos:station:SCCF:51:1,2009-03-06T08:00:00Z,26.5545,-82.1715,1.8,16.91,2 
SCCF RECON,ioos:station:SCCF:51:1,2009-03-06T09:00:00Z,26.5545,-82.1715,1.8,16.91,2 
SCCF RECON,ioos:station:SCCF:51:1,2009-03-06T10:00:00Z,26.5545,-82.1715,1.8,16.76,2 
SCCF RECON,ioos:station:SCCF:51:1,2009-03-06T11:00:00Z,26.5545,-82.1715,1.8,16.58,2 
SCCF RECON,ioos:station:SCCF:51:1,2009-03-06T12:00:00Z,26.5545,-82.1715,1.8,16.42,2 
SCCF RECON,ioos:station:SCCF:51:1,2009-03-06T13:00:00Z,26.5545,-82.1715,1.8,16.71,2 
SCCF RECON,ioos:station:SCCF:51:1,2009-03-06T14:00:00Z,26.5545,-82.1715,1.8,16.8,2 
SCCF RECON,ioos:station:SCCF:51:1,2009-03-06T15:00:00Z,26.5545,-82.1715,1.8,16.87,2 
SCCF RECON,ioos:station:SCCF:51:1,2009-03-06T16:00:00Z,26.5545,-82.1715,1.8,16.96,2 
SCCF RECON,ioos:station:SCCF:51:1,2009-03-06T17:00:00Z,26.5545,-82.1715,1.8,17.36,2 
SCCF RECON,ioos:station:SCCF:51:1,2009-03-06T18:00:00Z,26.5545,-82.1715,1.8,17.28,2 
SCCF RECON,ioos:station:SCCF:51:1,2009-03-06T19:00:00Z,26.5545,-82.1715,1.8,17.62,2 
SCCF RECON,ioos:station:SCCF:51:1,2009-03-06T20:00:00Z,26.5545,-82.1715,1.8,17.82,2 
SCCF RECON,ioos:station:SCCF:51:1,2009-03-06T21:00:00Z,26.5545,-82.1715,1.8,18.0,2 
SCCF RECON,ioos:station:SCCF:51:1,2009-03-06T22:00:00Z,26.5545,-82.1715,1.8,18.11,2 
SCCF RECON,ioos:station:SCCF:51:1,2009-03-06T23:00:00Z,26.5545,-82.1715,1.8,18.06,2 
SCCF RECON,ioos:station:SCCF:51:1,2009-03-07T00:00:00Z,26.5545,-82.1715,1.8,17.92,2 
SCCF RECON,ioos:station:SCCF:51:1,2009-03-07T01:00:00Z,26.5545,-82.1715,1.8,17.79,2 
SCCF RECON,ioos:station:SCCF:51:1,2009-03-07T02:00:00Z,26.5545,-82.1715,1.8,17.65,2 
SCCF RECON,ioos:station:SCCF:51:1,2009-03-07T03:00:00Z,26.5545,-82.1715,1.8,17.87,2 
SCCF RECON,ioos:station:SCCF:51:1,2009-03-07T04:00:00Z,26.5545,-82.1715,1.8,17.85,2 
SCCF RECON,ioos:station:SCCF:51:1,2009-03-07T05:00:00Z,26.5545,-82.1715,1.8,17.68,2 
SCCF RECON,ioos:station:SCCF:51:1,2009-03-07T06:00:00Z,26.5545,-82.1715,1.8,17.67,2 
SCCF RECON,ioos:station:SCCF:51:1,2009-03-07T07:00:00Z,26.5545,-82.1715,1.8,17.83,2 
SCCF RECON,ioos:station:SCCF:51:1,2009-03-07T08:00:00Z,26.5545,-82.1715,1.8,17.87,2 
SCCF RECON,ioos:station:SCCF:51:1,2009-03-07T09:00:00Z,26.5545,-82.1715,1.8,17.85,2 
SCCF RECON,ioos:station:SCCF:51:1,2009-03-07T10:00:00Z,26.5545,-82.1715,1.8,17.91,2 
SCCF RECON,ioos:station:SCCF:51:1,2009-03-07T11:00:00Z,26.5545,-82.1715,1.8,17.85,2 
SCCF RECON,ioos:station:SCCF:51:1,2009-03-07T12:00:00Z,26.5545,-82.1715,1.8,17.73,2 
SCCF RECON,ioos:station:SCCF:51:1,2009-03-07T13:00:00Z,26.5545,-82.1715,1.8,17.49,2 
SCCF RECON,ioos:station:SCCF:51:1,2009-03-07T14:00:00Z,26.5545,-82.1715,1.8,17.63,2 
SCCF RECON,ioos:station:SCCF:51:1,2009-03-07T15:00:00Z,26.5545,-82.1715,1.8,17.69,2 
SCCF RECON,ioos:station:SCCF:51:1,2009-03-07T16:00:00Z,26.5545,-82.1715,1.8,17.88,2 
SCCF RECON,ioos:station:SCCF:51:1,2009-03-07T17:00:00Z,26.5545,-82.1715,1.8,18.13,2 
SCCF RECON,ioos:station:SCCF:51:1,2009-03-07T18:00:00Z,26.5545,-82.1715,1.8,18.45,2 
SCCF RECON,ioos:station:SCCF:51:1,2009-03-07T19:00:00Z,26.5545,-82.1715,1.8,18.58,2 
SCCF RECON,ioos:station:SCCF:51:1,2009-03-07T20:00:00Z,26.5545,-82.1715,1.8,18.65,2 
SCCF RECON,ioos:station:SCCF:51:1,2009-03-07T21:00:00Z,26.5545,-82.1715,1.8,18.99,2 
SCCF RECON,ioos:station:SCCF:51:1,2009-03-07T22:00:00Z,26.5545,-82.1715,1.8,19.08,2 
SCCF RECON,ioos:station:SCCF:51:1,2009-03-07T23:00:00Z,26.5545,-82.1715,1.8,18.99,2 
SCCF RECON,ioos:station:SCCF:51:1,2009-03-08T00:00:00Z,26.5545,-82.1715,1.8,19.17,2 
SCCF RECON,ioos:station:SCCF:51:1,2009-03-08T01:00:00Z,26.5545,-82.1715,1.8,18.62,2 
SCCF RECON,ioos:station:SCCF:51:1,2009-03-08T02:00:00Z,26.5545,-82.1715,1.8,18.39,2 
SCCF RECON,ioos:station:SCCF:51:1,2009-03-08T03:00:00Z,26.5545,-82.1715,1.8,18.35,2 
SCCF RECON,ioos:station:SCCF:51:1,2009-03-08T04:00:00Z,26.5545,-82.1715,1.8,18.37,2 
SCCF RECON,ioos:station:SCCF:51:1,2009-03-08T05:00:00Z,26.5545,-82.1715,1.8,18.79,2 
SCCF RECON,ioos:station:SCCF:51:1,2009-03-08T06:00:00Z,26.5545,-82.1715,1.8,18.83,2 
SCCF RECON,ioos:station:SCCF:51:1,2009-03-08T07:00:00Z,26.5545,-82.1715,1.8,18.73,2 
SCCF RECON,ioos:station:SCCF:51:1,2009-03-08T08:00:00Z,26.5545,-82.1715,1.8,18.67,2 
SCCF RECON,ioos:station:SCCF:51:1,2009-03-08T09:00:00Z,26.5545,-82.1715,1.8,18.65,2 
SCCF RECON,ioos:station:SCCF:51:1,2009-03-08T10:00:00Z,26.5545,-82.1715,1.8,18.68,2 
SCCF RECON,ioos:station:SCCF:51:1,2009-03-08T11:00:00Z,26.5545,-82.1715,1.8,18.68,2 
SCCF RECON,ioos:station:SCCF:51:1,2009-03-08T12:00:00Z,26.5545,-82.1715,1.8,18.67,2 
SCCF RECON,ioos:station:SCCF:51:1,2009-03-08T13:00:00Z,26.5545,-82.1715,1.8,18.62,2 
SCCF RECON,ioos:station:SCCF:51:1,2009-03-08T14:00:00Z,26.5545,-82.1715,1.8,18.69,2 
SCCF RECON,ioos:station:SCCF:51:1,2009-03-08T15:00:00Z,26.5545,-82.1715,1.8,18.54,2 
SCCF RECON,ioos:station:SCCF:51:1,2009-03-08T16:00:00Z,26.5545,-82.1715,1.8,18.67,2 
SCCF RECON,ioos:station:SCCF:51:1,2009-03-08T17:00:00Z,26.5545,-82.1715,1.8,19.02,2 
SCCF RECON,ioos:station:SCCF:51:1,2009-03-08T18:00:00Z,26.5545,-82.1715,1.8,19.18,2 
SCCF RECON,ioos:station:SCCF:51:1,2009-03-08T19:00:00Z,26.5545,-82.1715,1.8,19.47,2 
SCCF RECON,ioos:station:SCCF:51:1,2009-03-08T20:00:00Z,26.5545,-82.1715,1.8,19.63,2 
SCCF RECON,ioos:station:SCCF:51:1,2009-03-08T21:00:00Z,26.5545,-82.1715,1.8,19.53,2 
SCCF RECON,ioos:station:SCCF:51:1,2009-03-08T22:00:00Z,26.5545,-82.1715,1.8,19.7,2 
SCCF RECON,ioos:station:SCCF:51:1,2009-03-08T23:00:00Z,26.5545,-82.1715,1.8,19.83,2 
SCCF RECON,ioos:station:SCCF:51:1,2009-03-09T00:00:00Z,26.5545,-82.1715,1.8,19.86,2 
SCCF RECON,ioos:station:SCCF:51:1,2009-03-09T01:00:00Z,26.5545,-82.1715,1.8,20.04,2 
SCCF RECON,ioos:station:SCCF:51:1,2009-03-09T02:00:00Z,26.5545,-82.1715,1.8,19.29,2 
SCCF RECON,ioos:station:SCCF:51:1,2009-03-09T03:00:00Z,26.5545,-82.1715,1.8,19.2,2 
SCCF RECON,ioos:station:SCCF:51:1,2009-03-09T04:00:00Z,26.5545,-82.1715,1.8,19.16,2 
SCCF RECON,ioos:station:SCCF:51:1,2009-03-09T05:00:00Z,26.5545,-82.1715,1.8,19.26,2 
SCCF RECON,ioos:station:SCCF:51:1,2009-03-09T06:00:00Z,26.5545,-82.1715,1.8,19.71,2 
SCCF RECON,ioos:station:SCCF:51:1,2009-03-09T07:00:00Z,26.5545,-82.1715,1.8,19.64,2 
SCCF RECON,ioos:station:SCCF:51:1,2009-03-09T08:00:00Z,26.5545,-82.1715,1.8,19.72,2 
SCCF RECON,ioos:station:SCCF:51:1,2009-03-09T09:00:00Z,26.5545,-82.1715,1.8,19.68,2 
SCCF RECON,ioos:station:SCCF:51:1,2009-03-09T10:00:00Z,26.5545,-82.1715,1.8,19.83,2 
SCCF RECON,ioos:station:SCCF:51:1,2009-03-09T11:00:00Z,26.5545,-82.1715,1.8,19.9,2 
SCCF RECON,ioos:station:SCCF:51:1,2009-03-09T12:00:00Z,26.5545,-82.1715,1.8,19.86,2 
SCCF RECON,ioos:station:SCCF:51:1,2009-03-09T13:00:00Z,26.5545,-82.1715,1.8,19.73,2 
SCCF RECON,ioos:station:SCCF:51:1,2009-03-09T14:00:00Z,26.5545,-82.1715,1.8,19.58,2 
SCCF RECON,ioos:station:SCCF:51:1,2009-03-09T15:00:00Z,26.5545,-82.1715,1.8,19.52,2 
SCCF RECON,ioos:station:SCCF:51:1,2009-03-09T16:00:00Z,26.5545,-82.1715,1.8,19.65,2 
SCCF RECON,ioos:station:SCCF:51:1,2009-03-09T17:00:00Z,26.5545,-82.1715,1.8,19.8,2 
SCCF RECON,ioos:station:SCCF:51:1,2009-03-09T18:00:00Z,26.5545,-82.1715,1.8,20.19,2 
SCCF RECON,ioos:station:SCCF:51:1,2009-03-09T19:00:00Z,26.5545,-82.1715,1.8,20.2,2 
SCCF RECON,ioos:station:SCCF:51:1,2009-03-09T20:00:00Z,26.5545,-82.1715,1.8,20.48,2 
SCCF RECON,ioos:station:SCCF:51:1,2009-03-09T21:00:00Z,26.5545,-82.1715,1.8,20.74,2 
SCCF RECON,ioos:station:SCCF:51:1,2009-03-09T22:00:00Z,26.5545,-82.1715,1.8,20.9,2 
SCCF RECON,ioos:station:SCCF:51:1,2009-03-09T23:00:00Z,26.5545,-82.1715,1.8,21.23,2 
SCCF RECON,ioos:station:SCCF:51:1,2009-03-10T00:00:00Z,26.5545,-82.1715,1.8,21.05,2 
SCCF RECON,ioos:station:SCCF:51:1,2009-03-10T01:00:00Z,26.5545,-82.1715,1.8,20.63,2 
SCCF RECON,ioos:station:SCCF:51:1,2009-03-10T02:00:00Z,26.5545,-82.1715,1.8,20.72,2 
SCCF RECON,ioos:station:SCCF:51:1,2009-03-10T03:00:00Z,26.5545,-82.1715,1.8,20.5,2 
SCCF RECON,ioos:station:SCCF:51:1,2009-03-10T04:00:00Z,26.5545,-82.1715,1.8,20.31,2 
SCCF RECON,ioos:station:SCCF:51:1,2009-03-10T05:00:00Z,26.5545,-82.1715,1.8,20.29,2 
SCCF RECON,ioos:station:SCCF:51:1,2009-03-10T06:00:00Z,26.5545,-82.1715,1.8,20.38,2 
SCCF RECON,ioos:station:SCCF:51:1,2009-03-10T07:00:00Z,26.5545,-82.1715,1.8,20.51,2 
SCCF RECON,ioos:station:SCCF:51:1,2009-03-10T08:00:00Z,26.5545,-82.1715,1.8,20.37,2 
SCCF RECON,ioos:station:SCCF:51:1,2009-03-10T09:00:00Z,26.5545,-82.1715,1.8,20.6,2 
SCCF RECON,ioos:station:SCCF:51:1,2009-03-10T10:00:00Z,26.5545,-82.1715,1.8,20.93,2 
SCCF RECON,ioos:station:SCCF:51:1,2009-03-10T11:00:00Z,26.5545,-82.1715,1.8,20.89,2 
SCCF RECON,ioos:station:SCCF:51:1,2009-03-10T12:00:00Z,26.5545,-82.1715,1.8,20.95,2 
SCCF RECON,ioos:station:SCCF:51:1,2009-03-10T13:00:00Z,26.5545,-82.1715,1.8,20.9,2 
SCCF RECON,ioos:station:SCCF:51:1,2009-03-10T14:00:00Z,26.5545,-82.1715,1.8,20.76,2 
SCCF RECON,ioos:station:SCCF:51:1,2009-03-10T15:00:00Z,26.5545,-82.1715,1.8,20.5,2 
SCCF RECON,ioos:station:SCCF:51:1,2009-03-10T16:00:00Z,26.5545,-82.1715,1.8,20.46,2 
SCCF RECON,ioos:station:SCCF:51:1,2009-03-10T17:00:00Z,26.5545,-82.1715,1.8,20.72,2 
SCCF RECON,ioos:station:SCCF:51:1,2009-03-10T18:00:00Z,26.5545,-82.1715,1.8,20.94,2 
SCCF RECON,ioos:station:SCCF:51:1,2009-03-10T19:00:00Z,26.5545,-82.1715,1.8,21.07,2 
SCCF RECON,ioos:station:SCCF:51:1,2009-03-10T20:00:00Z,26.5545,-82.1715,1.8,21.57,2 
SCCF RECON,ioos:station:SCCF:51:1,2009-03-10T21:00:00Z,26.5545,-82.1715,1.8,21.8,2 
SCCF RECON,ioos:station:SCCF:51:1,2009-03-10T22:00:00Z,26.5545,-82.1715,1.8,21.91,2 
SCCF RECON,ioos:station:SCCF:51:1,2009-03-10T23:00:00Z,26.5545,-82.1715,1.8,22.08,2 
SCCF RECON,ioos:station:SCCF:51:1,2009-03-11T00:00:00Z,26.5545,-82.1715,1.8,22.31,2 
SCCF RECON,ioos:station:SCCF:51:1,2009-03-11T01:00:00Z,26.5545,-82.1715,1.8,21.96,2 
SCCF RECON,ioos:station:SCCF:51:1,2009-03-11T02:00:00Z,26.5545,-82.1715,1.8,21.63,2 
SCCF RECON,ioos:station:SCCF:51:1,2009-03-11T03:00:00Z,26.5545,-82.1715,1.8,21.5,2 
SCCF RECON,ioos:station:SCCF:51:1,2009-03-11T04:00:00Z,26.5545,-82.1715,1.8,20.82,2 
SCCF RECON,ioos:station:SCCF:51:1,2009-03-11T05:00:00Z,26.5545,-82.1715,1.8,20.93,2 
SCCF RECON,ioos:station:SCCF:51:1,2009-03-11T06:00:00Z,26.5545,-82.1715,1.8,20.98,2 
SCCF RECON,ioos:station:SCCF:51:1,2009-03-11T07:00:00Z,26.5545,-82.1715,1.8,20.69,2 
SCCF RECON,ioos:station:SCCF:51:1,2009-03-11T08:00:00Z,26.5545,-82.1715,1.8,21.26,2 
SCCF RECON,ioos:station:SCCF:51:1,2009-03-11T09:00:00Z,26.5545,-82.1715,1.8,21.39,2 
SCCF RECON,ioos:station:SCCF:51:1,2009-03-11T10:00:00Z,26.5545,-82.1715,1.8,21.62,2 
SCCF RECON,ioos:station:SCCF:51:1,2009-03-11T11:00:00Z,26.5545,-82.1715,1.8,21.77,2 
SCCF RECON,ioos:station:SCCF:51:1,2009-03-11T12:00:00Z,26.5545,-82.1715,1.8,21.83,2 
SCCF RECON,ioos:station:SCCF:51:1,2009-03-11T13:00:00Z,26.5545,-82.1715,1.8,21.79,2 
SCCF RECON,ioos:station:SCCF:51:1,2009-03-11T14:00:00Z,26.5545,-82.1715,1.8,21.64,2 
SCCF RECON,ioos:station:SCCF:51:1,2009-03-11T15:00:00Z,26.5545,-82.1715,1.8,21.45,2 
SCCF RECON,ioos:station:SCCF:51:1,2009-03-11T16:00:00Z,26.5545,-82.1715,1.8,21.18,2 
SCCF RECON,ioos:station:SCCF:51:1,2009-03-11T17:00:00Z,26.5545,-82.1715,1.8,21.43,2 
SCCF RECON,ioos:station:SCCF:51:1,2009-03-11T18:00:00Z,26.5545,-82.1715,1.8,21.4,2 
SCCF RECON,ioos:station:SCCF:51:1,2009-03-11T19:00:00Z,26.5545,-82.1715,1.8,21.81,2 
SCCF RECON,ioos:station:SCCF:51:1,2009-03-11T20:00:00Z,26.5545,-82.1715,1.8,22.16,2 
SCCF RECON,ioos:station:SCCF:51:1,2009-03-11T21:00:00Z,26.5545,-82.1715,1.8,22.67,2 
SCCF RECON,ioos:station:SCCF:51:1,2009-03-11T22:00:00Z,26.5545,-82.1715,1.8,22.8,2 
SCCF RECON,ioos:station:SCCF:51:1,2009-03-11T23:00:00Z,26.5545,-82.1715,1.8,22.88,2 
SCCF RECON,ioos:station:SCCF:51:1,2009-03-12T00:00:00Z,26.5545,-82.1715,1.8,22.94,2 
SCCF RECON,ioos:station:SCCF:51:1,2009-03-12T01:00:00Z,26.5545,-82.1715,1.8,22.93,2 
SCCF RECON,ioos:station:SCCF:51:1,2009-03-12T02:00:00Z,26.5545,-82.1715,1.8,22.76,2 
SCCF RECON,ioos:station:SCCF:51:1,2009-03-12T03:00:00Z,26.5545,-82.1715,1.8,22.36,2 
SCCF RECON,ioos:station:SCCF:51:1,2009-03-12T04:00:00Z,26.5545,-82.1715,1.8,21.91,2 
SCCF RECON,ioos:station:SCCF:51:1,2009-03-12T05:00:00Z,26.5545,-82.1715,1.8,21.35,2 
SCCF RECON,ioos:station:SCCF:51:1,2009-03-12T06:00:00Z,26.5545,-82.1715,1.8,21.4,2 
SCCF RECON,ioos:station:SCCF:51:1,2009-03-12T07:00:00Z,26.5545,-82.1715,1.8,21.39,2 
SCCF RECON,ioos:station:SCCF:51:1,2009-03-12T08:00:00Z,26.5545,-82.1715,1.8,21.49,2 
SCCF RECON,ioos:station:SCCF:51:1,2009-03-12T09:00:00Z,26.5545,-82.1715,1.8,22.11,2 
SCCF RECON,ioos:station:SCCF:51:1,2009-03-12T10:00:00Z,26.5545,-82.1715,1.8,22.24,2 
SCCF RECON,ioos:station:SCCF:51:1,2009-03-12T11:00:00Z,26.5545,-82.1715,1.8,22.34,2 
SCCF RECON,ioos:station:SCCF:51:1,2009-03-12T12:00:00Z,26.5545,-82.1715,1.8,22.45,2 
SCCF RECON,ioos:station:SCCF:51:1,2009-03-12T13:00:00Z,26.5545,-82.1715,1.8,22.43,2 
SCCF RECON,ioos:station:SCCF:51:1,2009-03-12T14:00:00Z,26.5545,-82.1715,1.8,22.38,2 
SCCF RECON,ioos:station:SCCF:51:1,2009-03-12T15:00:00Z,26.5545,-82.1715,1.8,22.2,2 
SCCF RECON,ioos:station:SCCF:51:1,2009-03-12T16:00:00Z,26.5545,-82.1715,1.8,21.88,2 